一网星座-0639星 (ONEWEB-0639)

导读 | 豆包AI

ONEWEB-0639是英国OneWeb公司低轨宽带通信星座中的一颗卫星,于2023年3月9日由SpaceX猎鹰9号火箭在佛罗里达卡纳维拉尔角航天站发射,是该次任务的40颗卫星之一。 作为OneWeb第一代星座组网卫星,它运行于低地球轨道,单星容量7.5Gbit/s,可支持下行最高200Mbps、上行最高50Mbps的网络传输,服务面向企业、政府机构等,助力OneWeb实现全球宽带覆盖,填补偏远地区通信空白。

Basic Information
目录编号:
55803
目录名称:
ONEWEB-0639
国际标识:
2023-029H
轨道中心:
EARTH
卫星名称:
一网星座-0639星
卫星全名:
一网星座-0639星 (ONEWEB-0639)
卫星状态:
在轨 (已飞行1150 天)
发射日期:
2023-03-09 UTC
国别 :
英国 (GB)
星等 :
--
Orbit Information
数据来源 国际轨道数据 AOE轨道数据
星历时间 2026-05-02T10:05:12+0800
9小时前
查看轨道信息
2026-05-02T17:00:00+0800
2小时前
查看轨道信息
半长轴 7563.91km 7563.91km
偏心率 0.0002107 0.0001978
轨道倾角 87.915° 87.914°
近地点辐角 61.208° 76.714°
升交点赤经 314.170° 314.116°
平近点角 298.927° 211.177°
近地点 1184.179km 1184.276km
远地点 1187.367km 1187.27km
周期 109.114分钟 109.114分钟
每日圈数 13.197246 13.197245
Detailed Information
平衡模式:
三轴稳定
覆盖范围:
全球
运营商:
一网卫星公司
运营商所在国:
英国
制造商(研发单位):
一网卫星公司
制造商所在国:
英国
使用方式:
暂无
Satellite Introduction
OneWeb卫星网络由648颗重约125公斤的微型卫星组成,运行在1200公里的轨道上。 每颗卫星都能够提供至少每秒8千兆位的吞吐量,以使用其高吞吐量的Ku频段有效载荷为家庭和移动平台提供互联网接入。该卫星仍在工作。
2D Orbit Map
3D Orbit Map
Orbit Altitude Analysis Chart
Orbit Inclination Analysis Chart
Orbit Comprehensive Analysis Chart
View Comprehensive Chart